Starlink 32604

operational
NORAD ID: 62070 Int'l Des: 2024-217 Owner: SPXS Country: US Constellation: starlink
LEOCIRCULAR

Starlink 32604について

説明を読み込み中...

リアルタイム位置

3D地球を読み込み中...

次回通過

高度履歴

Altitude vs Time

uPlot chart will show altitude changes over time

軌道要素

1 62070U 24217P 25304.73240949 .00020984 00000-0 71900-3 0 9996
2 62070 53.1584 73.1572 0001232 83.8956 276.2185 15.30182716 53671
Epoch: Oct 31, 2025 • Age: 17 hours

現在のステータス

高度 486.4 km
速度 7.62 km/s
衛星直下点 -33.69°S, 85.37°E
打ち上げ日 Nov 24, 2024
運用期間 0.9 years
タイプ internet

技術仕様

分類 Payload
質量 730.00 kg
乾燥質量 700.00 kg
総質量 730.00 kg
長さ 0.30 m
直径 4.10 m
スパン 29.00 m
形状 Box + pan
製造者 SPXS
バスタイプ Starlink V2M
フェーズステータス In Orbit
所有者/国 SPXS/US

大規模コンステレーション

Loading constellations...